Regional Weather Roundup
Issued by NWS Sioux Falls, SD

Home | Current Version | Previous Version | Text Only | Print | Product List | Glossary On
Versions: 1 2 3 4 5 6 7 8 9 10 11 12 13 14 15 16 17 18 19 20 21 22 23 24 25 26 27 28 29 30 31 32 33 34 35 36 37 38 39 40 41 42 43 44 45 46 47 48 49 50
000
ASUS43 KFSD 281410
RWRFSD

WEATHER ROUNDUP FOR SE SOUTH DAKOTA/SW MINNESOTA/NW IOWA
NATIONAL WEATHER SERVICE SIOUX FALLS SD
800 AM CST WED JAN 28 2015

NOTE: "FAIR" INDICATES FEW OR NO CLOUDS BELOW 12,000 FEET WITH NO
SIGNIFICANT WEATHER AND OR OBSTRUCTIONS TO VISIBILITY.


SDZ038>040-050-052>070-281500-
SOUTHEAST SOUTH DAKOTA

CITY           SKY/WX    TMP DP  RH WIND       PRES   REMARKS
CHAMBERLAIN    CLOUDY    36  32  85 W12       29.70R
HURON          MOCLDY    32  30  92 SE7       29.71F WCI  26
MADISON        FAIR      32  32 100 S16G25    29.74F WCI  21
MITCHELL       MOCLDY    34  30  85 S15       29.72F WCI  24
SIOUX FALLS    MOCLDY    33  29  85 S15       29.79F WCI  23
WINNER         FAIR      48  31  51 W13       29.72R
YANKTON        PTCLDY    32  28  86 SE9       29.80F WCI  24
$$

MNZ071-072-080-081-089-090-097-098-281500-
SOUTHWEST MINNESOTA

CITY           SKY/WX    TMP DP  RH WIND       PRES   REMARKS
FAIRMONT       CLOUDY    30  27  86 S23G30    29.91F WCI  17
JACKSON        CLOUDY    32  30  93 S18       29.88F FOG     WCI  20
LUVERNE        PTCLDY    32  30  93 S16G22    29.82F FOG     WCI  21
MARSHALL       CLOUDY    32  27  80 S14       29.83F WCI  22
MONTEVIDEO     CLOUDY    32  32 100 S12G20    29.85F FOG     WCI  23
PIPESTONE      PTCLDY    32  30  93 S20G25    29.77F WCI  20
REDWOOD FALLS  CLOUDY    33  30  88 SE22G28   29.87F FOG     WCI  21
TRACY          CLOUDY    32  31  97 S15G24    29.83R FOG     WCI  22
WINDOM         CLOUDY    30  30 100 SE17      29.86F FOG     WCI  18
WORTHINGTON    CLOUDY    30  27  86 S20G25    29.85F WCI  18
$$

IAZ001>003-012>014-020>022-031-032-NEZ013-014-SDZ071-281500-
NORTHWEST IOWA

CITY           SKY/WX    TMP DP  RH WIND       PRES   REMARKS
CHEROKEE       CLOUDY    30  30 100 S9G16     29.88F FOG     WCI  22
DENISON        CLEAR     32  30  93 SE13      29.87F WCI  22
ESTHERVILLE    CLOUDY    30  29  96 S21G30    29.89F FOG     WCI  17
LE MARS        PTCLDY    32  30  93 S6G15     29.86S WCI  26
ORANGE CITY    PTCLDY    32  28  86 S12G17    29.84F WCI  23
SHELDON        MOCLDY    30  32 100 SE15G23   29.85R FOG     WCI  19
SIOUX CITY     PTCLDY    32  29  88 SE14      29.85F WCI  22
SPENCER        CLOUDY    31  28  89 SE20      29.88F FOG     WCI  19
STORM LAKE     FOG       30  30 100 SE26G32   29.87F VSB 1   WCI  16
$$

ABBREVIATIONS USED IN REMARKS
   TC - TEMPERATURE IN CELSIUS
  WCI - WIND CHILL INDEX
   HX - HEAT INDEX
  VSB - VISIBILITY




USA.gov is the U.S. government's official web portal to all federal, state and local government web resources and services.